Location: Unspecified
(0.0000°N, 0.0000°E)
Time: 12:50:10
(UTC+00:00)

Starlink (trailer) - Visible Passes

Search period start: 19 June 2019 00:00
Search period end: 29 June 2019 00:00
Orbit: 549 x 552 km, 53.0° (Epoch: 19 June)

Date Brightness Start Highest point End Pass type
(mag) Time Alt. Az. Time Alt. Az. Time Alt. Az.
21 Jun 6.2 20:10:16 10° N 20:10:52 13° N 20:10:52 13° N visible
22 Jun 5.6 20:05:52 10° NNW 20:07:33 22° N 20:07:33 22° N visible
23 Jun 4.9 20:02:08 10° NNW 20:04:41 37° NNW 20:04:41 37° NNW visible
24 Jun 4.6 19:59:03 10° NW 20:02:17 45° W 20:02:17 45° W visible
25 Jun 5.1 19:56:40 10° WNW 20:00:19 31° WSW 20:00:19 31° WSW visible
26 Jun 5.8 19:55:06 10° W 19:58:02 18° SW 19:58:48 18° SW visible
27 Jun 6.4 19:55:11 10° WSW 19:56:07 11° SW 19:57:02 10° SW visible
